DELTA 1 DEB (YO), 227

Orbit data source: Space-Track

DELTA 1 DEB (YO), 227 is space debris in LEO originally from a launch on Thu, 08 Feb 1962 UTC launched from the Air Force Eastern Test Range (AFETR). Debris objects in space refer to the collection of defunct objects orbiting the Earth. Examples of debris include non-operational satellites, rocket bodies, and fragments generated from explosions, collisions, or faulty payload assembly.

Loading next visibility...
Identifier
227, 1962-002B
Orbit
LEO
Last TLE update
16 hours ago
Origin
Manufacturer
RCA/East Windsor
Mission
Spacecraft
Bus & Motor
Unknown
Mass
~1 kg wet, ~1 kg dry
Launch date (UTC)
1962-02-08 (63 years ago)
Launch vehicle
Unknown
Launch site
Air Force Eastern Test Range (AFETR)
Object type
Payload
Rocket body
Debris
Shape & HBR
Unknown
Radar Cross Section
Small (<0.1 m²)

Expand to show TLE details & history

TLE from 16 hours ago
0 DELTA 1 DEB (YO)
1 00227U 62002B   25182.18797401  .00000361  00000-0  15279-3 0  9993
2 00227  48.1457 126.4183 0127715  52.5955 308.6486 14.40373079293693
Epoch: 2025-07-01T04:30Z
TLE epoch observation values (Epoch: 2025-07-01T04:30:40.954Z)
Latitude
-0.00001°
Longitude
139.26063°
Altitude
701.41 km
Speed
7.536 km/s
True Right ascension
08h 25m 40s
True Declination
0° 00' 00"
Sunlit
Object was in daylight at epoch
Visualization orbit readout
Latitude
-47.62883°
Longitude
58.5666°
Altitude
839.233 km
Speed
7.399 km/s
Apparent Right ascension
23h 44m 14s
Apparent Declination
-55° 54' 42"
Sunlit
Object is in daylight
Visualization observer readout
Local Sidereal Time
08:27:02
Azimuth
226.681° WSW
Elevation
-54.267°
Doppler factor
1
Orbital elements
Apogee altitude
849.45 km
Perigee altitude
667.163 km
Semi-major axis
7,136.444 km
Eccentricity
0.01277
Inclination
48.1457°
RAAN
126.4183°
Arg. of periapsis
52.5955°
True anomaly
Unknown
Mean anomaly
308.6486°
Eccentric anomaly
Unknown
Mean motion
3.60015 °/min
Orbital period
100 mins
BSTAR
0.00015279
Loading maneuver chart data...
Loading SW <> Apogee altitude chart data...
Loading historical data...
Loading historical data...
Loading historical data...
Loading historical data...
Loading historical data...
Loading historical data...
Loading historical data...
Other satellites on launch #2 in the year 1962 (1962-02-08 UTC)

DELTA 1 DEB (YO) Visibility forecast

Observer location: undefined°, undefined°

Span
Click to sort rows by Start time (UTC) header in descending order
Start Az.
Max El. time (UTC)
Max El. Az.
Max El.
End time (UTC)
End Az.
8 mins2025-07-01 22:59:54.018Z215.165° SW2025-07-01 23:03:54.018Z141.405° SSE37.846°2025-07-01 23:07:54.018Z69.155° E
7 mins2025-07-02 00:45:54.018Z278.121° WNW2025-07-02 00:48:54.018Z352.203° N35.145°2025-07-02 00:52:54.018Z52.812° ENE
7 mins2025-07-02 02:30:54.018Z307.256° NW2025-07-02 02:33:54.018Z357.892° N27.11°2025-07-02 02:37:54.018Z60.871° ENE
8 mins2025-07-02 04:15:54.018Z310.301° NW2025-07-02 04:19:54.018Z41.485° NE37.449°2025-07-02 04:23:54.018Z97.168° ESE
8 mins2025-07-02 06:00:54.018Z282.964° WNW2025-07-02 06:03:54.018Z227.659° WSW35.009°2025-07-02 06:08:54.018Z148.589° SSE
|